Location: West Wratting
(52.1333°N, 0.3500°E)
Time: 13:19:40
(UTC+00:00)

Daily predictions for brighter satellites

Satellite Brightness Start Highest point End
(mag) Time Altitude Azimuth Time Altitude Azimuth Time Altitude Azimuth
Cosmos 2360 Rocket 2.2 18:52:40 10° SSW 18:58:16 70° ESE 19:03:54 10° NE
ARGOS Delta rocket 4.1 18:53:28 10° SSE 18:58:29 55° ENE 19:03:16 10° N
Okean O Rocket 2.7 18:56:03 10° ESE 18:59:48 28° ENE 19:03:34 10° N
Cosmos 1340 3.0 18:58:03 10° SSE 19:01:02 33° E 19:04:02 10° NNE
USA 186 2.4 19:00:11 10° SE 19:03:10 38° ENE 19:06:14 10° N
Meteor PRIRODA 3.3 19:00:11 10° SSE 19:03:30 86° ENE 19:06:50 10° NNW
Resurs 01 Rocket 2.0 18:59:59 10° SE 19:04:13 46° ENE 19:08:28 10° N
Cosmos 2322 Rocket 2.4 19:01:26 10° SSW 19:07:09 86° WNW 19:12:54 10° NNE
Cosmos 1459 Rocket 4.4 19:01:28 10° SSW 19:07:28 68° WNW 19:13:32 10° N
Helios 1A 3.0 19:04:33 10° NNE 19:08:33 52° E 19:12:30 10° S
BlueWalker 3 1.9 19:08:02 10° WNW 19:11:48 86° SSW 19:15:32 10° ESE
NOSS 2-1 (E) 3.7 19:08:30 10° NW 19:11:56 51° NE 19:16:27 10° ESE
Cosmos 44 Rocket 3.2 19:07:22 10° NW 19:12:12 88° NE 19:16:54 10° SE
ACS3 Solar Sail 2.5 19:06:59 10° SE 19:12:50 40° ENE 19:18:43 10° N
Cosmos 2333 Rocket 2.3 19:09:22 10° SSW 19:15:09 85° ESE 19:20:58 10° NNE
SL-08 R/B 3.4 19:11:02 10° NNE 19:15:59 78° ESE 19:20:54 10° SSW
Okean-O 3.9 19:12:28 10° ESE 19:16:01 24° ENE 19:19:34 10° N
ATLAS 3B R/B 4.1 19:09:13 10° NW 19:16:36 46° WSW 19:23:51 10° S
SKYMED 3 4.4 19:13:09 10° NNE 19:17:18 73° ESE 19:21:25 10° S
Feng Yun 1-1 Rocket 4.5 19:12:17 10° SE 19:17:55 62° ENE 19:23:44 10° N
Cosmos 2219 Rocket 2.3 19:13:39 10° S 19:19:12 57° ESE 19:24:46 10° NE
Cosmos 1626 3.2 19:18:05 10° NNW 19:20:55 37° W 19:23:43 10° SSW
NOSS 2-1 (D) 3.4 19:18:30 10° NW 19:21:59 62° NE 19:26:16 12° ESE
Meteor 1-5 Rocket 4.2 19:17:05 10° S 19:22:43 81° E 19:28:34 10° NNE
BREEZE-M DEB (TANK) 3.0 19:22:04 10° SSW 19:23:49 22° SSE 19:25:16 14° ESE
CSL-04 Rocket 3.7 19:19:11 10° SSE 19:24:29 63° ENE 19:29:45 10° N
Cosmos 1842 3.7 19:21:11 10° N 19:24:34 36° ENE 19:27:54 10° SE
USA 229 DEB 4.4 19:18:52 10° NW 19:26:09 66° SW 19:34:08 10° SSE
USA 229 4.3 19:19:02 10° NW 19:26:20 67° SW 19:34:16 10° SSE
SL-16 R/B 3.4 19:21:55 10° WSW 19:27:22 46° NW 19:32:51 10° NNE
CZ-4B R/B 4.3 19:25:56 10° S 19:30:32 50° W 19:35:12 10° NNW
SJ-6B 3.7 19:27:11 10° S 19:30:43 47° W 19:34:14 10° NNW
Cosmos 1766 Rocket 3.8 19:28:50 10° SSE 19:32:57 45° E 19:37:08 10° NNE
Cosmos 1725 Rocket 4.5 19:28:50 10° SSW 19:34:57 65° WNW 19:41:08 10° N
Cosmos 2369 Rocket 4.2 19:31:24 10° NNW 19:35:02 17° NNE 19:38:39 10° ENE
USA 267 3.6 19:29:14 10° E 19:35:41 63° N 19:42:10 10° WNW
BREEZE-M R/B 3.8 19:32:24 10° W 19:36:29 69° S 19:49:01 11° E
Cosmos 2322 3.9 19:34:40 10° S 19:40:02 47° ESE 19:45:27 10° NE
USA 276 1.9 19:37:15 10° WSW 19:40:03 54° S 19:41:31 22° ESE
Cosmos 1066 Rocket 4.4 19:34:24 10° NNW 19:40:19 88° WSW 19:46:11 10° S
Cosmos 1400 Rocket 2.7 19:37:41 10° NNW 19:41:35 85° WSW 19:45:23 10° S
Cosmos 1707 2.7 19:42:40 10° N 19:46:10 51° ENE 19:48:44 17° SSE
Cosmos 1315 Rocket 4.0 19:43:17 10° N 19:46:36 25° ENE 19:48:17 19° ESE
PSLV R/B 3.9 19:44:58 17° SE 19:47:29 46° ENE 19:50:56 10° N
Cosmos 2333 4.5 19:42:43 10° SW 19:48:30 75° WNW 19:54:17 10° NNE
CZ-4 R/B 2.4 19:45:37 10° S 19:49:14 43° W 19:52:57 10° NNW
Cosmos 1733 4.1 19:49:19 22° ESE 19:50:06 24° E 19:52:56 10° NE
Cosmos 1726 1.7 19:47:19 10° SSW 19:50:07 66° WNW 19:52:56 10° N
Cosmos 1891 Rocket 4.5 19:44:16 10° S 19:50:11 59° E 19:56:15 10° NNE
KORONAS-FOTON 3.6 19:52:45 10° N 19:56:29 86° E 19:59:46 13° S
Lacrosse 4 Rocket 2.1 19:52:21 10° NW 19:56:36 52° WSW 20:00:26 12° SSE
Cosmos 1536 3.2 19:55:07 17° SSE 19:57:32 36° E 20:01:05 10° NNE
USA 308 3.4 19:58:02 10° WSW 19:58:10 12° WSW 19:58:10 12° WSW
COSMOS 2428 2.8 19:53:33 10° S 19:59:04 54° ESE 20:04:40 10° NE
Cosmos 1818 3.5 19:53:43 10° SSW 19:59:07 65° SE 20:04:34 10° NE
CSL-04 Debris 4.5 19:54:06 10° S 19:59:33 70° WSW 20:05:03 10° NNW
Nadezhda 4 Rocket 4.1 19:54:20 10° N 20:00:29 58° ENE 20:05:35 16° SSE
Cosmos 1356 Rocket 3.3 19:56:33 10° N 20:00:45 72° ENE 20:03:50 18° SSE
Meteor 1-4 Rocket 1.8 19:58:08 10° NNW 20:00:50 78° W 20:02:22 23° S
Cosmos 1943 Rocket 2.4 19:57:40 10° NNW 20:03:05 54° NE 20:06:27 23° ESE
Cosmos 1674 3.3 20:01:26 10° NNW 20:04:41 48° W 20:07:54 10° S
Cosmos 1328 Rocket 4.0 20:01:37 10° NNW 20:05:51 60° W 20:10:04 10° S
Cosmos 841 Rocket 4.2 20:01:43 10° SW 20:06:49 56° WNW 20:11:56 10° NNE
Meteor 1-14 Rocket 4.1 20:01:37 10° S 20:07:07 73° E 20:12:40 10° NNE
SL-14 R/B 4.4 20:05:20 10° NNE 20:08:30 24° ENE 20:09:03 23° E
Cosmos 1743 3.9 20:05:13 10° SSW 20:08:37 41° WNW 20:12:02 10° N
USA 59 Rocket 0.2 20:05:15 10° NW 20:08:54 64° SW 20:11:54 22° SSE
Cosmos 1513 Rocket 4.4 20:03:04 10° S 20:09:04 73° E 20:15:10 10° NNE
Terra 2.5 20:09:11 25° ESE 20:11:12 37° ENE 20:15:32 10° N
Cosmos 1464 Rocket 4.0 20:06:28 10° S 20:12:38 62° E 20:18:55 10° NNE
Meteor 1-11 Rocket 4.0 20:09:42 12° SSE 20:14:37 47° E 20:19:56 10° NNE
Cosmos 1125 Rocket 3.5 20:10:48 10° NNW 20:15:59 63° ENE 20:18:45 27° SE
Ariane Rocket 3.9 20:14:46 25° ESE 20:16:45 33° ENE 20:21:15 10° N
USA 290 2.2 20:15:20 10° NNW 20:18:36 78° WSW 20:19:43 38° SSE
SPOT 3 Rocket 4.4 20:17:16 25° ESE 20:19:15 34° ENE 20:23:50 10° N
Cosmos 2278 Rocket 2.2 20:13:39 10° NNW 20:19:21 88° WSW 20:22:58 23° SSE
ERS-1 Rocket 3.2 20:19:35 28° SE 20:22:02 54° ENE 20:26:56 10° N
BREEZE-M DEB (TANK) 3.9 20:19:03 10° W 20:22:07 67° S 20:26:06 23° ESE
CZ-4B R/B 4.2 20:17:40 10° S 20:22:55 45° W 20:28:07 10° NNW
Meteor 2-9 Rocket 4.3 20:20:43 22° SSE 20:23:47 46° E 20:28:56 10° NNE
NOSS 2-1 (C) 4.2 20:21:50 10° NW 20:25:24 47° SW 20:27:52 24° SSE
USA 306 4.3 20:22:29 10° SSW 20:23:20 16° SSW 20:23:20 16° SSW
SPOT 5 2.7 20:24:19 23° SSE 20:27:15 88° ENE 20:31:49 10° NNW
IRS-1A Rocket 4.3 20:25:48 25° SSE 20:29:17 71° ENE 20:35:00 10° NNW
Cosmos 2034 Rocket 4.0 20:26:34 16° SSE 20:31:25 58° E 20:37:28 10° NNE
Aureole 1 4.4 20:28:43 10° NNW 20:31:42 66° WSW 20:32:23 48° S
Okean 3 Rocket 3.6 20:28:45 10° S 20:33:15 87° W 20:37:44 10° N
Okean O Rocket 2.7 20:31:49 11° S 20:35:53 43° W 20:40:09 10° NNW
NOSS 0 Rocket 3.9 20:33:26 10° SSW 20:39:36 65° ESE 20:45:47 10° NE
Resurs 01 Rocket 3.8 20:37:12 10° SSW 20:40:51 25° W 20:44:31 10° NW
USA 215 3.7 20:35:42 10° ENE 20:41:40 36° SE 20:47:35 10° SSW
Cosmos 2360 Rocket 4.2 20:37:50 10° WSW 20:42:46 30° NW 20:47:43 10° NNE
ATLAS 2AS CENTAUR R/B 4.2 20:37:55 10° W 20:44:28 36° NNW 20:50:48 10° NE
Meteor 1-21 4.5 20:40:12 10° N 20:45:50 53° ENE 20:47:41 38° SE
Cosmos 2228 Rocket 3.9 20:41:59 10° N 20:46:12 35° ENE 20:46:32 35° E
MOS 1 Rocket 3.5 20:45:58 31° S 20:48:24 82° WSW 20:53:39 10° NNW
BlueWalker 3 3.1 20:46:16 10° W 20:49:35 30° SW 20:49:46 29° SSW
Cosmos 2237 Rocket 2.2 20:46:17 16° S 20:50:38 56° ESE 20:56:08 10° NE
Cosmos 1515 Rocket 4.5 20:47:47 10° NNW 20:51:55 44° W 20:54:36 20° SSW
Okean-O 3.3 20:49:38 23° SSW 20:52:07 50° W 20:56:26 10° NNW
Cosmos 1814 Rocket 4.4 20:47:58 10° SW 20:53:14 65° WNW 20:58:29 10° NNE
Cosmos 1805 3.5 20:55:19 47° NE 20:55:19 47° NE 20:58:12 10° NNE
Aureole 3 Rocket 3.9 20:47:44 12° S 20:54:43 74° E 21:00:05 10° NNE
ACS3 Solar Sail 2.7 20:50:39 10° S 20:56:49 49° W 21:03:02 10° NNW
Sich 1 2.8 20:57:04 63° SE 20:57:33 71° E 21:01:51 10° NNE
CZ-4C R/B 3.9 20:55:38 10° NNE 20:58:28 42° NE 20:58:28 42° NE
Cosmos 2333 Rocket 4.4 20:55:18 10° W 21:00:09 27° NW 21:05:02 10° NNE
Cosmos 2219 Rocket 3.8 20:58:15 10° WSW 21:03:26 35° NW 21:08:39 10° NNE
Cosmos 2279 Rocket 4.4 21:06:50 40° ESE 21:07:31 41° E 21:13:17 10° NNE
BREEZE-M DEB (TANK) 3.7 20:51:07 10° W 21:08:54 74° S 21:10:46 44° ESE
Cosmos 1500 Rocket 3.6 21:11:22 51° SSW 21:12:25 78° W 21:16:49 10° N
Cosmos 1743 Rocket 3.3 21:16:40 84° S 21:16:49 89° ENE 21:21:10 10° N
USA 267 3.2 21:16:20 45° SE 21:18:37 81° SSW 21:25:13 10° WNW
Cosmos 1980 3.6 21:13:37 10° SSW 21:19:18 89° ESE 21:25:03 10° NNE
Cosmos 2369 Rocket 2.7 21:15:01 10° NNW 21:20:32 47° NE 21:21:39 42° E
Cosmos 2298 Rocket 4.0 21:15:55 10° NNW 21:21:14 77° WSW 21:22:14 58° S
Cosmos 1315 Rocket 4.0 21:19:07 10° NNW 21:22:46 36° W 21:23:29 33° WSW
Spot 2 Rocket 3.6 21:21:59 51° SSW 21:23:07 69° WSW 21:28:10 10° NNW
NOSS 3-3 (A) 4.4 21:25:46 39° E 21:25:46 39° E 21:30:18 10° NE
Cosmos 2150 Rocket 4.0 21:21:10 10° NNW 21:26:21 70° WSW 21:27:08 59° SSW
Cosmos 1975 3.6 21:32:52 45° N 21:32:52 45° N 21:35:39 10° N
Cosmos 1570 Rocket 4.1 21:30:08 26° SW 21:33:09 73° WNW 21:38:27 10° NNE
COSMOS 2428 4.2 21:38:18 10° WSW 21:43:35 37° NW 21:48:54 10° NNE
NOSS 3-4 (A) 3.8 21:39:30 10° NW 21:46:07 76° NE 21:47:59 53° ESE
NOSS 3-4 (C) 3.8 21:39:36 10° NW 21:46:13 75° NE 21:48:05 53° ESE
Cosmos 1943 Rocket 3.4 21:41:46 10° NW 21:46:36 32° WSW 21:47:58 28° SW
Okean 1-7 3.9 21:42:32 10° N 21:45:42 42° NNE 21:45:42 42° NNE
SL-16 R/B 3.0 21:49:08 37° ENE 21:49:08 37° ENE 21:52:49 10° NE
Terra 3.0 21:47:52 31° WSW 21:48:49 34° W 21:53:07 10° NNW
Cosmos 158 Rocket 4.4 21:53:01 41° WSW 21:54:24 55° WNW 21:59:13 10° NNE
Cosmos 2266 Rocket 4.0 21:48:54 10° N 21:55:05 65° ENE 21:55:29 63° E
Ariane Rocket 3.7 21:54:54 42° WSW 21:55:33 44° W 22:00:25 10° NNW
Cosmos 2263 4.3 21:51:29 10° NNW 21:57:12 62° NE 21:57:25 61° ENE
USA 59 Rocket 2.8 21:56:55 10° WSW 21:58:08 11° WSW 21:58:17 11° WSW
SPOT 3 Rocket 4.2 21:57:51 42° WSW 21:58:31 45° W 22:03:27 10° NNW
Okean 3 4.4 21:57:22 10° NNW 22:00:28 45° NW 22:00:28 45° NW
Cosmos 1862 Rocket 4.2 21:57:25 10° NNW 22:01:03 52° NW 22:01:03 52° NW
Cosmos 2278 Rocket 4.3 21:58:59 10° WNW 22:02:38 18° W 22:04:48 14° SW
Cosmos 1634 Rocket 4.3 22:01:43 40° SW 22:03:56 63° WNW 22:10:15 10° N
Cosmos 1633 Rocket 4.1 22:07:14 42° N 22:07:14 42° N 22:10:10 10° N
Cosmos 1707 Rocket 4.5 22:02:41 10° NNW 22:06:27 45° WNW 22:06:27 45° WNW
MetOp-A 4.4 22:14:26 53° NW 22:14:26 53° NW 22:18:10 10° NNW
Cosmos 1655 Rocket 4.1 22:09:33 10° N 22:15:53 63° ENE 22:15:58 63° E
Cosmos 2142 Rocket 4.4 22:22:56 71° WSW 22:23:25 75° WNW 22:29:35 10° N
USA 215 3.1 22:18:37 10° ENE 22:25:13 86° SSE 22:31:47 10° WSW
Cosmos 773 Rocket 4.3 22:26:08 63° NW 22:26:08 63° NW 22:31:16 10° NNE
Cosmos 1656 Rocket 4.2 22:22:36 10° NW 22:27:40 51° W 22:27:40 51° W
ARIANE 5 R/B 3.9 22:34:11 38° N 22:34:11 38° N 22:36:55 10° NNW
Cosmos 2237 Rocket 3.6 22:29:49 10° WSW 22:34:57 35° NW 22:40:08 10° NNE
Cosmos 2297 4.3 22:30:54 10° NW 22:35:42 48° W 22:35:42 48° W
ATLAS 2AS CENTAUR R/B 4.1 22:30:52 10° NW 22:37:10 34° N 22:43:14 10° ENE
NOSS 3-3 (C) 4.2 22:56:53 56° WNW 22:57:48 63° NW 23:04:31 10° NE
USA 267 4.4 23:03:41 30° WSW 23:03:41 30° WSW 23:08:02 10° WNW
Cosmos 2369 Rocket 3.3 22:59:13 10° NW 23:03:25 36° W 23:03:25 36° W
ATLAS CENTAUR R/B 4.1 23:11:25 12° NNE 23:11:25 12° NNE 23:11:52 10° NNE
Cosmos 1607 4.4 23:28:33 58° WNW 23:29:10 61° NW 23:35:33 10° NE
Cosmos 1745 Rocket 4.4 23:23:30 10° N 23:29:08 54° NE 23:29:08 54° NE
SL-16 R/B 3.3 23:30:58 38° WNW 23:31:39 39° NW 23:36:58 10° NNE
Meteor 2-5 Rocket 4.4 23:30:53 10° NNW 23:35:40 52° NW 23:35:40 52° NW
Cosmos 2056 Rocket 4.5 23:32:08 10° NNW 23:35:42 44° NNW 23:35:42 44° NNW
